User: anonymous   Login
Location: Emory University Observatory
(33.7903°N, 84.3267°W)
Time: 10:55:40
(UTC-04:00)
Language:

N. Korean satellite - Orbit

View from above orbital plane
View from above orbital plane
View from above satellite
View from above satellite

Ground track
Ground track

The orbit data is extracted from the following two-line orbital elements,

1 39026U 12072A   18197.12388075  .00001020  00000-0  40646-4 0  9999
2 39026  97.2099 206.5056 0037956 218.3707 141.4832 15.26832959310074
Epoch (UTC): 16 July 2018 02:58:23
Eccentricity: 0.0037956
inclination: 97.2099°
perigee height: 459 km
apogee height: 511 km
right ascension of ascending node: 206.5056°
argument of perigee: 218.3707°
revolutions per day: 15.26832959
mean anomaly at epoch: 141.4832°
orbit number at epoch: 31007

The dashed part of the orbit path shows where the satellite is in the earth's shadow,  

DLR